{"data":{"norad_id":57626,"intl_designator":"2023-121A","name":"HEAD-3A","alt_names":[],"object_type":"PAYLOAD","status":"ACTIVE","operator":null,"country":"PRC","launch_date":"2023-08-14","launch_site_code":"XICLF","launch_vehicle":null,"mission":null,"orbit_class":"UNKNOWN","rcs_meters":null,"size_class":null,"mass_kg":null,"dimensions":null,"purposes":[],"wikipedia_slug":null,"has_3d_model":false,"image_url":null,"decayed_at":null,"tle_current":{"epoch":"2026-05-25T03:55:01.977312Z","epoch_age_seconds":57782,"freshness":"FRESH","line1":"1 57626U 23121A   26145.16321733  .00000574  00000+0  14929-3 0  9992","line2":"2 57626  45.0022  64.9218 0005799 164.8847 195.2185 14.60631298148216","mean_motion":14.60631298,"eccentricity":0.0005799,"inclination_deg":45.0022,"raan_deg":64.9218,"arg_perigee_deg":164.8847,"mean_anomaly_deg":195.2185,"bstar":0.00014929,"rev_number":14821,"period_min":98.58750815293,"perigee_km":687.03684737007,"apogee_km":695.23579056541,"semimajor_km":7069.2733189677,"source":"CELESTRAK","updated_at":"2026-05-25T13:38:00.148170Z"}}}